Location: ?????????
(53.2086°N, 54.0693°E)
Time: 17:47:02
(UTC+00:00)

BREEZE-M R/B - Pass Details

Date: 08 December 2019
Orbit: 309 x 4546 km, 49.7° (Epoch: 28 January)

Event Time Altitude Azimuth Distance (km) Brightness Sun altitude
Rises 13:22:46 0° 253° (WSW) 4,698 9.7 -10.6°
Reaches altitude 10° 13:26:53 10° 250° (WSW) 3,045 8.2 -11.1°
Maximum altitude 13:33:12 52° 176° (S) 802 3.7 -12.0°
Enters shadow 13:35:55 15° 101° (ESE) 1,375 4.4 -12.4°
